Content
SEND FEEDBACK

Daily
Averages
Monthly
Summary
Canada

INGONISH BEACH, NOVA SCOTIA


Home > North America > Canada > Nova Scotia
Elevation: 16 feet     Latitude: 46 39N     Longitude: 060 24W

WEATHER
 
SELECT A DAY
Number of Records: 127,384;   Date Range: 12/10/00 - 7/11/14
 
SHARE

PRINT THIS DATA

[ ← Previous Day ]
WEATHER ALMANAC - MAY 19, 2013
[ Next Day → ]
[ °C ]   °F
Weather ElementAverageHighLow
Temperature38.6 °F44.4 °F (5:00 pm)34.3 °F (10:00 pm)
Dewpoint28.4 °F32.9 °F (2:00 am)24.3 °F (6:00 pm)
Humidity66.3 %89 % (2:00 am)40 % (3:00 pm)
Barometer30.30 in30.32 in (9:00 am)30.25 in (2:00 am)
Wind Speed4.9 mph8.1 mph (10:00 am)
Weather ElementAverage
Wind DirectionWSW (257.9 °)

Weather ElementTotal
Precipitation---
Heating Degree Days25.7 (Base 65)
Averaged from 24 records on May 19, 2013
WEATHER CONDITIONS BREAKOUT
WIND DIRECTION BREAKOUT
WEATHER BY HOUR - MAY 19, 2013
[ °C ]   °F
Local TimeTemperatureDewpointHumidityBarometerVisibilityWind DirectionWind SpeedGust SpeedPrecipitationEventsConditions
2:00 AM35.8 °F32.9 °F89 %30.25 inNorth (10°)2.3 mph
3:00 AM36.0 °F31.0 °F73 %30.25 inNorth3.5 mph
3:00 AM36.0 °F30.6 °F81 %30.25 inNorth (360°)3.5 mph
4:00 AM36.0 °F29.8 °F78 %30.25 inNorth (350°)3.5 mph
5:00 AM36.0 °F30.0 °F79 %30.27 inNorth (360°)4.6 mph
6:00 AM36.1 °F30.2 °F79 %30.28 inNorth (360°)3.5 mph
7:00 AM36.3 °F30.4 °F79 %30.29 inNorth (360°)3.5 mph
8:00 AM36.3 °F30.0 °F78 %30.31 inNorth (360°)4.6 mph
9:00 AM37.0 °F29.0 °F64 %30.32 inNorth (10°)5.8 mph
9:00 AM37.4 °F29.1 °F72 %30.32 inNorth (10°)5.8 mph
10:00 AM37.8 °F28.4 °F69 %30.32 inNorth (360°)8.1 mph
11:00 AM38.5 °F28.9 °F69 %30.32 inNorth (360°)5.8 mph
12:00 PM40.8 °F27.7 °F60 %30.32 inNorth (360°)6.9 mph
1:00 PM42.8 °F27.1 °F54 %30.32 inNorth (350°)6.9 mph
2:00 PM42.8 °F28.4 °F57 %30.31 inNNE (20°)8.1 mph
3:00 PM44.0 °F28.0 °F40 %30.31 inNorth (350°)6.9 mph
3:00 PM43.5 °F27.5 °F53 %30.31 inNorth (350°)6.9 mph
4:00 PM44.2 °F25.7 °F48 %30.31 inNorth (350°)5.8 mph
5:00 PM44.4 °F25.0 °F46 %30.31 inNNW (330°)6.9 mph
6:00 PM43.3 °F24.3 °F47 %30.31 inNNW (330°)4.6 mph
9:00 PM35.0 °F28.0 °F65 %30.32 inSW (220°)2.3 mph
9:00 PM34.9 °F27.5 °F74 %30.32 inSW (220°)2.3 mph
10:00 PM34.3 °F27.1 °F75 %30.31 inWSW (240°)1.2 mph
11:00 PM36.7 °F25.0 °F63 %30.30 inSouth (170°)3.5 mph
Hourly data recorded from CXIB, located miles away from Ingonish Beach, Nova Scotia







STORIES FROM OUR PARTNERS